Wind_Speed
14 12 15 17 4 4 5 6 6 4 5 7 4 5 2 4 8 9 10 11 10 10 9 8 9 10 11 11 12 12 12 13 12 11 10 9 10 8 9 11 12 11 10 11
9 17 17 6 5 7 7 7 4 2 4 4 1 4 2 5 8 9 9 9 8 8 8 9 9 10 11 11 10 10 12 13 12 9 10 7 8 6 5 4 3 1 2 8
19 18 9 11 10 10 11 8 6 8 4 4 5 10 5 5 6 7 10 8 7 8 8 9 11 11 12 12 11 10 11 13 12 10 10 8 7 5 4 2 4 1 4 13
13 6 12 16 15 9 14 5 4 6 5 2 2 5 6 3 8 7 9 9 8 8 9 7 7 13 14 14 13 11 12 13 12 13 11 11 11 6 4 8 11 13 10 12
14 13 14 16 16 10 11 1 4 4 7 5 9 6 1 3 7 10 9 9 8 6 5 6 5 6 12 16 16 14 13 14 12 12 8 10 10 9 7 6 7 7 8 10
11 7 16 16 10 10 3 8 7 6 7 9 7 5 5 5 4 2 10 10 9 8 6 5 5 8 12 16 17 16 15 14 13 11 10 10 8 7 5 3 5 7 9 10
14 14 11 8 13 10 10 13 9 10 9 8 6 5 6 5 4 1 12 12 11 9 9 7 7 9 13 17 19 17 15 14 13 13 11 8 7 6 3 4 5 8 9 11
15 17 16 13 15 15 17 16 12 7 10 4 6 6 3 4 2 3 11 14 12 10 7 7 6 8 12 15 15 14 16 13 12 12 10 9 7 3 1 3 6 9 11 13
14 15 17 9 13 13 9 10 9 9 7 9 11 3 11 6 4 7 12 13 13 12 9 9 10 10 13 14 15 16 15 14 13 12 11 9 6 3 2 4 6 8 9 12
9 13 11 13 7 5 7 1 9 9 9 9 4 4 5 2 8 11 14 15 15 14 11 11 11 14 15 16 16 16 15 13 11 11 10 8 5 1 2 4 6 7 9 11
7 14 10 10 13 15 7 10 8 10 5 7 6 2 8 2 2 14 15 16 16 16 13 12 11 13 15 17 18 17 15 16 15 10 8 7 5 4 3 3 4 5 7 9
16 12 13 19 7 5 8 9 11 9 12 7 7 4 7 2 2 10 13 15 17 15 15 13 14 14 15 15 17 17 17 17 15 13 11 9 7 5 4 3 1 2 4 7
13 9 11 11 9 6 9 8 11 8 4 5 10 5 3 3 3 9 13 16 16 15 14 13 13 15 15 15 17 18 16 16 17 15 13 11 10 9 6 4 2 2 5 8
13 15 14 14 14 9 13 9 11 12 9 6 9 4 7 1 5 11 12 16 17 16 16 14 13 15 16 16 15 15 14 14 15 16 14 12 9 8 4 2 3 4 5 8
21 17 12 3 3 3 9 8 9 10 6 8 7 2 6 3 4 10 10 14 17 18 18 15 13 10 16 13 14 14 13 13 13 13 12 10 7 6 7 7 5 7 6 8
18 16 13 12 5 7 9 8 9 9 5 8 7 8 7 2 2 9 12 15 18 17 16 15 12 10 12 16 16 14 14 15 14 12 8 5 4 8 8 9 10 10 7 8
20 13 11 13 6 7 11 12 11 8 8 10 9 3 4 2 3 6 10 13 13 11 11 11 8 6 10 16 15 14 15 14 12 10 6 5 8 9 10 11 11 8 9 10
18 19 11 9 7 12 3 3 7 9 9 10 11 7 4 3 9 6 4 8 8 10 12 8 5 1 10 10 9 9 11 10 8 5 5 5 7 9 11 9 7 10 12 13
15 15 7 6 12 3 6 6 9 9 11 15 13 8 3 3 10 12 7 7 11 11 10 8 7 6 2 2 5 9 8 6 4 4 5 6 6 7 6 8 10 12 14 15
12 15 9 9 11 10 12 8 4 2 10 6 6 6 5 4 8 7 11 17 16 18 16 14 14 9 8 4 3 7 6 4 2 3 3 3 5 6 8 10 12 13 15 18
11 10 13 10 8 5 7 7 6 8 3 5 3 3 4 4 4 15 15 16 20 22 22 15 11 18 14 9 2 8 9 7 5 5 5 5 7 9 9 11 13 14 16 18
4 7 6 1 5 8 5 7 6 4 4 4 3 4 12 16 17 17 16 18 19 23 23 27 22 12 13 3 5 10 10 7 7 6 7 8 9 10 12 13 14 14 15 17
3 6 4 4 4 4 6 4 5 3 4 3 6 12 16 17 17 18 16 15 13 12 11 12 24 23 8 3 6 8 8 8 7 7 8 9 10 10 10 12 13 15 14 15
3 5 4 3 5 4 6 8 4 4 3 5 9 14 14 15 15 14 13 10 10 13 15 17 20 18 11 8 9 9 9 9 8 8 10 10 10 12 11 11 12 13 14 15
2 7 3 5 6 6 8 7 7 9 7 6 10 12 14 17 14 13 13 12 15 18 18 18 17 14 11 9 10 9 8 7 7 6 7 8 10 11 11 10 10 10 10 13
6 4 4 3 3 3 5 2 8 8 8 7 12 15 13 11 8 11 13 18 19 19 18 17 15 13 10 9 8 7 7 7 7 6 6 8 8 9 10 10 11 9 9 11
Wind_Direction
200 214 216 224 199 351 292 283 295 30 10 304 327 302 306 195 201 206 201 189 191 190 195 180 196 209 213 215 213 210 205 202 199 202 205 211 213 215 249 269 270 268 273 286
185 223 220 242 192 246 257 277 290 132 10 268 300 285 257 212 220 217 216 213 204 201 192 195 194 194 198 200 197 203 203 198 203 209 208 206 192 224 289 312 341 199 341 320
226 212 202 196 206 238 236 274 354 332 327 236 269 240 229 184 216 215 227 223 219 217 222 189 186 199 190 186 181 192 198 194 192 201 190 189 203 236 246 278 118 10 316 286
225 167 200 216 231 228 259 123 291 305 271 261 267 316 203 237 223 202 208 210 212 205 208 228 199 183 192 184 180 183 192 200 205 195 190 197 207 208 220 260 292 297 293 300
194 193 205 218 227 219 271 277 305 285 236 235 167 273 344 169 255 212 202 181 192 193 199 192 172 155 182 181 178 177 174 180 182 187 200 198 218 227 267 284 295 313 327 323
230 217 213 221 201 218 115 236 231 232 261 243 97 287 282 39 8 132 181 171 165 169 147 155 136 152 162 168 168 168 168 177 178 180 183 198 213 229 257 280 316 316 311 315
211 199 189 210 211 198 218 236 231 213 207 242 102 243 309 14 330 199 181 168 163 167 158 149 146 149 158 165 165 172 175 177 178 176 174 191 193 184 201 291 314 314 311 314
206 204 194 188 225 207 212 235 245 241 257 283 151 260 356 55 82 162 182 161 170 159 124 127 133 143 154 163 160 169 180 179 179 174 168 155 151 161 262 317 331 317 321 322
205 232 185 192 211 237 171 223 279 298 236 264 270 196 250 194 153 154 159 173 175 142 144 141 136 139 147 152 156 164 172 164 160 156 147 136 127 103 0 349 346 348 343 337
214 216 189 177 196 196 279 155 207 221 268 267 243 246 282 137 193 181 175 187 167 148 152 144 140 145 141 138 143 148 151 147 143 145 146 142 134 95 47 14 6 357 349 349
219 234 157 166 207 185 183 223 233 300 314 297 254 123 77 8 230 191 185 190 166 164 161 157 151 150 143 142 145 146 147 144 142 144 158 167 165 142 96 49 15 356 358 355
220 216 173 198 107 358 287 243 242 232 203 237 318 326 103 12 273 189 186 181 168 175 163 161 158 152 149 146 148 150 154 154 155 154 161 164 156 149 130 133 116 355 0 353
187 233 196 148 160 187 225 206 235 244 305 195 278 87 120 66 176 172 179 178 171 175 164 166 156 162 166 167 164 163 165 165 162 158 158 163 163 171 169 174 201 335 345 345
188 227 222 191 202 207 199 199 225 230 227 192 222 51 113 116 165 186 188 184 177 175 172 170 172 178 181 177 177 170 171 175 174 165 160 167 195 208 220 180 229 281 319 327
212 228 229 105 38 44 305 193 206 244 314 304 40 300 100 0 237 209 190 187 181 184 181 172 165 171 181 171 173 170 170 175 175 178 170 177 206 248 269 274 279 296 303 321
213 223 223 245 227 261 256 234 207 226 244 252 273 272 99 71 238 198 202 202 191 191 188 178 183 161 176 178 170 168 164 169 169 183 172 191 233 256 276 266 281 293 292 306
201 217 206 221 205 244 236 221 209 217 235 246 245 300 134 172 245 234 216 207 200 181 181 189 192 217 201 187 177 172 170 169 170 176 178 212 247 266 286 283 284 283 294 300
191 203 201 217 190 224 113 58 215 231 237 236 255 264 289 0 47 30 190 195 176 150 172 81 8 125 149 157 164 160 164 167 172 189 224 252 276 287 291 278 284 295 298 299
204 187 189 189 216 209 182 198 201 205 241 222 245 249 238 100 127 64 81 127 127 116 100 99 64 79 73 199 155 151 160 166 186 239 271 291 297 299 295 296 301 302 301 302
209 209 215 198 243 232 242 130 165 272 247 226 220 230 222 193 250 101 116 117 117 105 82 48 21 62 38 312 168 145 138 138 64 11 5 343 334 320 318 319 317 312 309 306
175 199 206 193 231 190 89 123 158 225 38 75 133 157 167 183 38 137 131 136 128 110 106 95 61 59 52 316 233 116 99 75 38 28 15 358 349 334 324 321 320 315 311 309
210 201 194 213 238 235 133 140 234 55 97 82 96 115 113 125 134 145 144 145 145 139 142 131 107 88 67 351 124 98 80 58 37 18 4 347 335 333 325 322 319 320 318 313
301 352 352 310 41 108 182 51 109 75 97 95 122 131 135 137 142 147 152 157 158 151 135 117 123 107 109 109 99 84 57 35 16 359 345 339 338 338 333 330 330 326 329 326
353 330 271 272 146 222 197 192 200 174 139 136 146 139 134 140 153 162 152 146 135 135 120 121 113 114 137 102 79 62 41 22 11 2 352 345 339 347 344 341 342 342 342 340
30 182 223 262 240 244 222 208 200 184 169 134 152 156 145 146 150 155 147 144 140 134 131 124 126 132 117 95 70 53 39 26 17 10 355 356 353 354 346 353 345 348 351 344
186 199 235 336 79 264 89 151 195 184 178 152 160 146 134 126 151 163 145 139 136 129 128 130 130 123 111 94 75 59 49 45 37 23 14 21 0 0 0 1 358 354 7 4
Height
766 778 783 768 764 775 778 780 782 772 768 771 773 769 765 764 765 766 765 768 769 776 779 784 790 793 797 800 804 807 810 813 815 816 818 820 820 821 822 822 820 820 821 822
775 781 758 755 768 775 776 780 775 769 768 773 771 769 763 762 763 762 764 764 766 770 774 781 786 790 794 797 801 805 807 810 812 814 816 818 819 820 821 819 816 816 817 817
773 762 753 766 774 779 773 777 777 783 771 767 771 772 766 760 762 761 760 760 760 766 769 772 780 786 790 795 799 803 806 808 810 811 814 817 817 818 818 818 814 813 813 814
764 753 765 769 772 769 779 761 771 778 783 787 769 793 765 757 763 766 761 761 759 761 765 768 770 778 786 792 796 799 803 806 808 809 811 813 814 815 814 814 812 811 810 810
769 766 772 772 767 760 773 763 770 773 773 776 777 788 766 760 764 761 759 755 757 756 759 762 767 773 779 787 793 797 800 803 805 807 809 811 812 812 813 812 811 809 808 807
752 747 752 754 751 757 757 769 769 768 767 793 774 786 771 760 759 755 754 752 754 754 758 763 768 774 779 784 790 795 799 800 801 804 806 808 809 810 811 811 810 809 808 806
763 762 749 747 763 757 764 769 791 800 793 796 765 784 766 748 747 753 752 752 752 754 757 762 768 774 779 783 786 792 797 799 800 802 804 807 808 809 810 810 808 809 807 805
775 785 756 746 754 760 763 759 779 809 798 781 768 789 762 746 745 748 744 746 749 755 760 763 769 774 778 782 786 792 797 800 801 801 804 806 808 809 810 810 809 807 806 803
767 766 735 740 739 745 757 775 743 765 765 786 767 757 741 740 751 752 750 750 752 756 761 764 769 773 778 781 784 789 795 798 800 802 803 806 808 808 809 809 808 807 805 803
746 769 743 743 745 747 750 739 771 764 803 808 774 776 769 756 756 753 754 752 750 757 762 764 769 773 776 779 784 788 793 797 802 804 804 804 805 807 807 807 807 806 805 802
739 745 757 749 755 751 759 760 755 751 763 788 790 771 738 746 742 747 745 746 746 755 760 764 769 773 777 780 785 789 793 796 799 803 806 807 807 806 806 806 806 806 804 802
738 739 758 752 733 730 731 742 741 770 777 764 770 768 730 737 738 734 739 742 744 751 758 765 771 776 780 783 786 789 792 794 797 800 804 806 807 806 805 805 805 805 804 802
735 748 760 760 752 745 745 738 735 734 738 765 774 771 737 734 739 735 737 742 746 753 761 766 773 779 782 784 786 788 792 794 796 798 801 804 804 804 803 803 803 804 803 801
731 735 744 760 748 732 748 743 741 737 754 753 752 749 741 740 745 743 741 742 747 755 762 767 772 777 781 784 789 791 793 796 798 797 798 801 805 805 805 803 803 803 802 801
728 747 736 736 738 739 739 738 744 747 738 756 748 747 741 739 739 743 741 745 751 758 762 767 770 777 781 786 790 792 794 796 800 802 800 800 803 805 805 804 804 803 801 800
726 745 736 747 738 741 749 737 737 740 741 743 742 744 728 737 736 740 743 745 749 757 763 768 771 778 781 785 787 791 793 795 797 801 800 801 802 804 802 802 802 802 800 799
729 734 748 758 743 745 760 740 736 734 731 735 750 733 729 735 741 740 743 745 750 761 769 773 774 777 779 783 786 789 792 795 797 798 798 799 800 801 801 801 800 799 798 797
724 731 736 746 751 783 730 717 717 729 727 724 728 726 726 734 736 740 740 748 755 765 769 777 782 779 784 786 788 790 794 796 797 798 799 799 799 799 799 798 797 797 796 794
705 720 741 755 756 736 733 730 732 736 735 717 724 722 726 733 737 752 747 749 756 767 777 781 783 785 790 793 791 791 794 796 798 799 799 799 799 798 798 797 796 795 793 790
714 713 728 742 751 762 726 711 711 719 747 708 717 723 727 733 743 763 754 761 771 776 782 788 789 787 790 796 794 793 794 796 798 801 800 800 800 798 797 796 794 793 791 787
734 727 733 735 740 725 720 719 717 757 750 724 722 727 728 737 743 762 765 769 774 776 782 788 794 789 788 799 801 795 796 801 802 802 802 802 800 798 797 796 794 791 789 785
732 730 733 733 744 754 718 727 739 736 727 724 728 728 734 744 755 760 765 770 773 771 775 768 781 793 791 802 805 801 801 801 802 802 801 801 801 798 796 794 792 790 787 784
739 728 731 732 730 726 720 726 725 724 727 730 731 733 739 746 753 759 765 771 774 779 781 779 778 783 803 808 805 805 802 801 802 802 802 800 799 797 795 791 788 786 783 781
731 731 732 736 722 723 722 723 725 724 725 727 730 733 739 747 754 759 764 772 777 780 782 785 786 794 807 806 805 805 802 801 802 802 802 801 799 797 794 790 788 785 784 783
734 741 734 731 726 723 720 720 720 723 725 727 730 734 737 745 752 760 763 769 776 781 786 789 795 801 803 804 804 805 804 804 802 802 803 801 797 796 795 791 790 788 787 787
730 728 730 725 720 722 722 718 717 721 724 727 731 737 739 743 758 761 765 769 775 780 786 792 797 800 802 803 804 804 804 803 802 802 802 799 799 798 796 790 787 785 785 785